| time (UTC) | temp F | wind direction | speed MPH | gust MPH | rain 1hr in | rain 24hr in | rain mn in | humidity % | barometer mb |
| 20260904034510 | 68 | 56 | 0.0 | 0.0 | 0.00 | 0.00 | 0.00 | 88 | 1014.5 |
| 20260904034055 | 68 | 56 | 0.0 | 0.0 | 0.00 | 0.00 | 0.00 | 87 | 1014.4 |
| 20260904033535 | 68 | 56 | 0.0 | 0.0 | 0.00 | 0.00 | 0.00 | 87 | 1014.4 |
| 20260904033016 | 68 | 56 | 0.0 | 0.0 | 0.00 | 0.00 | 0.00 | 87 | 1014.2 |
| 20260904032559 | 68 | 56 | 0.0 | 0.0 | 0.00 | 0.00 | 0.00 | 87 | 1014.2 |
| 20260904032035 | 68 | 56 | 0.0 | 0.0 | 0.00 | 0.00 | 0.00 | 87 | 1014.1 |
| 20260904031515 | 68 | 56 | 0.0 | 0.0 | 0.00 | 0.00 | 0.00 | 86 | 1014.1 |
| 20260904031059 | 69 | 56 | 0.0 | 0.0 | 0.00 | 0.00 | 0.00 | 86 | 1014.0 |
| 20260904030539 | 69 | 56 | 0.0 | 0.0 | 0.00 | 0.00 | 0.00 | 85 | 1014.0 |
| 20260904030002 | 69 | 56 | 0.0 | 0.0 | 0.00 | 0.00 | 0.00 | 85 | 1013.9 |
| 20260904025546 | 69 | 56 | 0.0 | 0.0 | 0.00 | 0.00 | 0.00 | 85 | 1014.0 |
| 20260904025026 | 69 | 56 | 0.0 | 0.0 | 0.00 | 0.00 | 0.00 | 85 | 1013.9 |
| 20260904024506 | 69 | 56 | 0.0 | 0.0 | 0.00 | 0.00 | 0.00 | 84 | 1013.8 |
| 20260904024050 | 69 | 56 | 0.0 | 0.0 | 0.00 | 0.00 | 0.00 | 84 | 1013.7 |
| 20260904023533 | 70 | 56 | 0.0 | 0.0 | 0.00 | 0.00 | 0.00 | 83 | 1013.9 |
| 20260904023009 | 70 | 56 | 0.0 | 0.0 | 0.00 | 0.00 | 0.00 | 83 | 1014.0 |
| 20260904022553 | 70 | 56 | 0.0 | 0.0 | 0.00 | 0.00 | 0.00 | 83 | 1013.9 |
| 20260904022034 | 70 | 56 | 0.0 | 0.0 | 0.00 | 0.00 | 0.00 | 83 | 1014.0 |
| 20260904021513 | 70 | 56 | 0.0 | 0.0 | 0.00 | 0.00 | 0.00 | 83 | 1014.1 |
| 20260904021057 | 71 | 56 | 0.0 | 0.0 | 0.00 | 0.01 | 0.00 | 83 | 1014.1 |
| 20260904020537 | 71 | 56 | 0.0 | 0.0 | 0.00 | 0.01 | 0.00 | 82 | 1014.1 |
| 20260904020136 | 71 | 56 | 0.0 | 0.0 | 0.00 | 0.01 | 0.00 | 82 | 1014.1 |
| 20260904015543 | 71 | 56 | 0.0 | 0.0 | 0.00 | 0.01 | 0.00 | 81 | 1014.3 |
| 20260904015023 | 71 | 56 | 0.0 | 0.0 | 0.00 | 0.01 | 0.00 | 80 | 1014.2 |
| 20260904014503 | 72 | 56 | 0.0 | 0.0 | 0.00 | 0.01 | 0.00 | 81 | 1014.3 |
| 20260904014048 | 72 | 56 | 0.0 | 0.0 | 0.00 | 0.01 | 0.00 | 80 | 1014.2 |
| 20260904013530 | 72 | 56 | 0.0 | 0.0 | 0.00 | 0.01 | 0.00 | 80 | 1014.1 |
| 20260904013015 | 72 | 56 | 0.0 | 0.0 | 0.00 | 0.01 | 0.00 | 80 | 1013.9 |
| 20260904012551 | 72 | 56 | 0.0 | 0.0 | 0.00 | 0.01 | 0.00 | 79 | 1013.7 |
| 20260904012034 | 72 | 56 | 0.0 | 0.0 | 0.00 | 0.01 | 0.00 | 79 | 1013.5 |
| 20260904011514 | 73 | 56 | 0.0 | 0.0 | 0.00 | 0.01 | 0.00 | 79 | 1013.4 |
| 20260904011055 | 73 | 56 | 0.0 | 0.0 | 0.00 | 0.05 | 0.00 | 79 | 1013.5 |
| 20260904010535 | 73 | 56 | 0.0 | 0.0 | 0.00 | 0.05 | 0.00 | 79 | 1013.2 |
| 20260904010120 | 73 | 56 | 0.0 | 0.0 | 0.00 | 0.05 | 0.00 | 79 | 1013.2 |
| 20260904005542 | 73 | 56 | 0.0 | 0.0 | 0.00 | 0.05 | 0.00 | 79 | 1013.1 |
| 20260904005021 | 74 | 56 | 0.0 | 0.0 | 0.00 | 0.05 | 0.00 | 79 | 1013.0 |
| 20260904004501 | 74 | 56 | 0.0 | 2.0 | 0.00 | 0.05 | 0.00 | 79 | 1012.7 |
| 20260904004045 | 74 | 56 | 0.0 | 4.0 | 0.00 | 0.05 | 0.00 | 79 | 1012.6 |
| 20260904003527 | 74 | 55 | 0.0 | 4.0 | 0.00 | 0.05 | 0.00 | 79 | 1012.8 |
| 20260904003004 | 75 | 54 | 0.0 | 4.0 | 0.00 | 0.05 | 0.00 | 79 | 1013.0 |
| 20260904002546 | 75 | 54 | 0.0 | 2.0 | 0.00 | 0.05 | 0.00 | 80 | 1013.0 |
| 20260904002027 | 75 | 55 | 0.0 | 6.0 | 0.00 | 0.05 | 0.00 | 80 | 1013.0 |
| 20260904001506 | 75 | 42 | 1.0 | 6.0 | 0.00 | 0.05 | 0.00 | 80 | 1013.2 |
| 20260904001050 | 76 | 33 | 0.0 | 6.0 | 0.00 | 0.17 | 0.00 | 81 | 1013.0 |
| 20260904000530 | 76 | 45 | 0.0 | 7.0 | 0.00 | 0.17 | 0.00 | 82 | 1013.0 |
| 20260904000114 | 76 | 44 | 3.0 | 7.0 | 0.00 | 0.17 | 0.00 | 82 | 1013.0 |
| 20260903235537 | 77 | 58 | 0.0 | 6.0 | 0.00 | 0.17 | 0.00 | 81 | 1013.1 |
| 20260903235016 | 77 | 59 | 1.0 | 6.0 | 0.00 | 0.17 | 0.00 | 81 | 1013.1 |
| 20260903234613 | 77 | 321 | 1.0 | 6.0 | 0.00 | 0.17 | 0.00 | 81 | 1013.1 |
| 20260903234042 | 78 | 282 | 0.0 | 4.0 | 0.00 | 0.17 | 0.00 | 81 | 1013.0 |
| 20260903233524 | 78 | 306 | 0.0 | 0.0 | 0.00 | 0.17 | 0.00 | 82 | 1012.6 |
| 20260903233105 | 78 | 306 | 0.0 | 0.0 | 0.00 | 0.17 | 0.00 | 82 | 1012.6 |
| 20260903232544 | 78 | 306 | 0.0 | 0.0 | 0.00 | 0.17 | 0.00 | 82 | 1012.6 |
| 20260903232024 | 78 | 306 | 0.0 | 0.0 | 0.00 | 0.17 | 0.00 | 82 | 1012.2 |
| 20260903231504 | 78 | 306 | 0.0 | 0.0 | 0.00 | 0.17 | 0.00 | 82 | 1012.3 |
| 20260903231049 | 79 | 306 | 0.0 | 0.0 | 0.00 | 0.40 | 0.00 | 82 | 1012.6 |
| 20260903230528 | 79 | 306 | 0.0 | 0.0 | 0.00 | 0.40 | 0.00 | 82 | 1012.5 |
| 20260903230112 | 79 | 306 | 0.0 | 0.0 | 0.00 | 0.40 | 0.00 | 81 | 1012.5 |
| 20260903225534 | 79 | 306 | 0.0 | 0.0 | 0.00 | 0.40 | 0.00 | 81 | 1012.4 |
| 20260903225015 | 79 | 306 | 0.0 | 0.0 | 0.00 | 0.40 | 0.00 | 81 | 1012.3 |
| 20260903224559 | 79 | 306 | 0.0 | 0.0 | 0.00 | 0.40 | 0.00 | 81 | 1012.4 |
| 20260903224039 | 79 | 306 | 0.0 | 0.0 | 0.00 | 0.40 | 0.00 | 81 | 1012.3 |
| 20260903223518 | 80 | 306 | 0.0 | 0.0 | 0.00 | 0.40 | 0.00 | 81 | 1012.4 |
| 20260903223102 | 80 | 306 | 0.0 | 0.0 | 0.00 | 0.40 | 0.00 | 80 | 1012.3 |
| 20260903222542 | 80 | 306 | 0.0 | 0.0 | 0.00 | 0.40 | 0.00 | 80 | 1012.4 |
| 20260903222022 | 80 | 306 | 0.0 | 0.0 | 0.00 | 0.40 | 0.00 | 80 | 1012.5 |
| 20260903221502 | 80 | 305 | 0.0 | 0.0 | 0.00 | 0.40 | 0.00 | 80 | 1012.4 |
| 20260903221046 | 80 | 305 | 0.0 | 0.0 | 0.00 | 0.40 | 0.00 | 80 | 1012.3 |
| 20260903220527 | 81 | 306 | 0.0 | 0.0 | 0.00 | 0.40 | 0.00 | 79 | 1012.3 |
| 20260903220111 | 81 | 306 | 0.0 | 0.0 | 0.00 | 0.40 | 0.00 | 78 | 1012.2 |
| 20260903215532 | 81 | 306 | 0.0 | 0.0 | 0.00 | 0.40 | 0.00 | 79 | 1012.3 |
| 20260903215013 | 81 | 306 | 0.0 | 0.0 | 0.00 | 0.40 | 0.00 | 78 | 1012.2 |
| 20260903214556 | 81 | 305 | 0.0 | 1.0 | 0.00 | 0.40 | 0.00 | 78 | 1012.1 |
| 20260903214037 | 81 | 306 | 0.0 | 1.0 | 0.00 | 0.40 | 0.00 | 78 | 1012.1 |
| 20260903213519 | 81 | 307 | 0.0 | 0.0 | 0.00 | 0.40 | 0.00 | 78 | 1012.0 |
| 20260903213101 | 81 | 307 | 0.0 | 0.0 | 0.00 | 0.40 | 0.00 | 78 | 1011.8 |
| 20260903212540 | 81 | 307 | 0.0 | 0.0 | 0.00 | 0.40 | 0.00 | 78 | 1012.0 |
| 20260903212023 | 81 | 307 | 0.0 | 1.0 | 0.00 | 0.40 | 0.00 | 78 | 1012.2 |
| 20260903211604 | 81 | 308 | 0.0 | 2.0 | 0.00 | 0.40 | 0.00 | 78 | 1012.1 |
| 20260903211044 | 81 | 308 | 0.0 | 4.0 | 0.00 | 0.40 | 0.00 | 78 | 1012.1 |
| 20260903210524 | 81 | 310 | 0.0 | 4.0 | 0.00 | 0.40 | 0.00 | 78 | 1012.1 |
| 20260903210109 | 81 | 310 | 0.0 | 1.0 | 0.00 | 0.40 | 0.00 | 78 | 1012.2 |
| 20260903205530 | 82 | 310 | 0.0 | 0.0 | 0.00 | 0.40 | 0.00 | 79 | 1012.3 |
| 20260903205010 | 82 | 310 | 0.0 | 0.0 | 0.00 | 0.40 | 0.00 | 79 | 1012.4 |
| 20260903204556 | 82 | 310 | 0.0 | 0.0 | 0.00 | 0.40 | 0.00 | 79 | 1012.4 |
| 20260903204035 | 82 | 310 | 0.0 | 0.0 | 0.00 | 0.40 | 0.00 | 78 | 1012.4 |
| 20260903203518 | 82 | 310 | 0.0 | 1.0 | 0.00 | 0.40 | 0.00 | 78 | 1012.3 |
| 20260903203058 | 82 | 310 | 0.0 | 1.0 | 0.00 | 0.40 | 0.00 | 78 | 1012.5 |
| 20260903202538 | 82 | 310 | 0.0 | 0.0 | 0.00 | 0.40 | 0.00 | 79 | 1012.4 |
| 20260903202019 | 82 | 310 | 0.0 | 0.0 | 0.00 | 0.40 | 0.00 | 78 | 1012.5 |
| 20260903201602 | 82 | 311 | 0.0 | 0.0 | 0.00 | 0.40 | 0.00 | 79 | 1012.6 |
| 20260903201042 | 82 | 310 | 0.0 | 1.0 | 0.00 | 0.40 | 0.00 | 79 | 1012.6 |
| 20260903200522 | 82 | 310 | 0.0 | 1.0 | 0.00 | 0.40 | 0.00 | 79 | 1012.7 |
| 20260903200106 | 82 | 311 | 0.0 | 0.0 | 0.00 | 0.40 | 0.00 | 79 | 1012.7 |
| 20260903195527 | 82 | 311 | 0.0 | 0.0 | 0.00 | 0.40 | 0.00 | 79 | 1012.7 |
| 20260903195009 | 82 | 311 | 0.0 | 2.0 | 0.00 | 0.40 | 0.00 | 79 | 1012.8 |
| 20260903194552 | 82 | 311 | 0.0 | 4.0 | 0.00 | 0.40 | 0.00 | 79 | 1012.7 |
| 20260903194032 | 82 | 311 | 0.0 | 4.0 | 0.00 | 0.40 | 0.00 | 79 | 1012.8 |
| 20260903193516 | 82 | 311 | 0.0 | 1.0 | 0.00 | 0.40 | 0.00 | 79 | 1012.7 |
| 20260903193106 | 82 | 311 | 0.0 | 2.0 | 0.00 | 0.40 | 0.00 | 79 | 1012.7 |
| 20260903192536 | 82 | 311 | 0.0 | 2.0 | 0.00 | 0.40 | 0.00 | 79 | 1012.7 |
| 20260903192017 | 82 | 311 | 0.0 | 1.0 | 0.00 | 0.40 | 0.00 | 79 | 1012.8 |
| 20260903191606 | 82 | 331 | 0.0 | 1.0 | 0.00 | 0.40 | 0.00 | 79 | 1012.8 |
| 20260903191040 | 82 | 331 | 0.0 | 4.0 | 0.00 | 0.40 | 0.00 | 79 | 1012.8 |
| 20260903190520 | 82 | 331 | 0.0 | 4.0 | 0.00 | 0.40 | 0.00 | 79 | 1012.9 |
| 20260903190105 | 82 | 334 | 0.0 | 4.0 | 0.00 | 0.40 | 0.00 | 79 | 1013.0 |
| 20260903185526 | 82 | 334 | 0.0 | 4.0 | 0.00 | 0.40 | 0.00 | 78 | 1013.0 |
| 20260903185006 | 82 | 270 | 0.0 | 5.0 | 0.00 | 0.40 | 0.00 | 78 | 1012.9 |
| 20260903184550 | 82 | 267 | 0.0 | 0.0 | 0.00 | 0.40 | 0.00 | 77 | 1012.9 |
| 20260903184026 | 83 | 267 | 0.0 | 1.0 | 0.00 | 0.40 | 0.00 | 76 | 1012.9 |
| 20260903183506 | 83 | 267 | 0.0 | 4.0 | 0.00 | 0.40 | 0.00 | 76 | 1012.8 |
| 20260903183051 | 83 | 267 | 0.0 | 4.0 | 0.00 | 0.40 | 0.00 | 76 | 1012.9 |
| 20260903182531 | 83 | 267 | 0.0 | 4.0 | 0.00 | 0.40 | 0.00 | 75 | 1012.9 |
| 20260903182011 | 83 | 267 | 0.0 | 4.0 | 0.00 | 0.40 | 0.00 | 75 | 1012.9 |
| 20260903181604 | 83 | 247 | 0.0 | 4.0 | 0.00 | 0.40 | 0.00 | 74 | 1012.9 |
| 20260903181036 | 84 | 247 | 0.0 | 5.0 | 0.00 | 0.40 | 0.00 | 72 | 1013.1 |
| 20260903180515 | 84 | 246 | 1.0 | 5.0 | 0.00 | 0.40 | 0.00 | 71 | 1012.9 |
| 20260903180107 | 84 | 293 | 0.0 | 4.0 | 0.00 | 0.40 | 0.00 | 73 | 1012.9 |
| 20260903175523 | 84 | 295 | 0.0 | 5.0 | 0.00 | 0.40 | 0.00 | 72 | 1013.0 |
| 20260903175001 | 83 | 241 | 2.0 | 6.0 | 0.00 | 0.40 | 0.00 | 73 | 1013.2 |
| 20260903174545 | 83 | 216 | 0.0 | 6.0 | 0.00 | 0.40 | 0.00 | 75 | 1013.2 |
| 20260903174027 | 83 | 245 | 1.0 | 5.0 | 0.00 | 0.40 | 0.00 | 75 | 1013.2 |
| 20260903173505 | 82 | 227 | 1.0 | 6.0 | 0.00 | 0.40 | 0.00 | 76 | 1013.3 |
| 20260903173057 | 82 | 225 | 1.0 | 6.0 | 0.00 | 0.40 | 0.00 | 77 | 1013.3 |
| 20260903172529 | 82 | 219 | 0.0 | 6.0 | 0.00 | 0.40 | 0.00 | 78 | 1013.2 |
| 20260903172009 | 81 | 252 | 0.0 | 2.0 | 0.00 | 0.40 | 0.00 | 79 | 1013.2 |
| 20260903171553 | 81 | 252 | 0.0 | 4.0 | 0.00 | 0.40 | 0.00 | 78 | 1013.3 |
| 20260903171033 | 81 | 252 | 1.0 | 5.0 | 0.00 | 0.40 | 0.00 | 78 | 1013.3 |
| 20260903170513 | 81 | 252 | 1.0 | 5.0 | 0.00 | 0.40 | 0.00 | 78 | 1013.3 |
| 20260903170206 | 81 | 260 | 0.0 | 4.0 | 0.00 | 0.40 | 0.00 | 79 | 1013.3 |
| 20260903165518 | 81 | 260 | 1.0 | 5.0 | 0.00 | 0.40 | 0.00 | 77 | 1013.3 |
| 20260903165103 | 81 | 250 | 1.0 | 5.0 | 0.00 | 0.40 | 0.00 | 78 | 1013.4 |
| 20260903164549 | 80 | 252 | 0.0 | 5.0 | 0.00 | 0.40 | 0.00 | 80 | 1013.4 |
| 20260903164026 | 80 | 252 | 0.0 | 6.0 | 0.00 | 0.40 | 0.00 | 80 | 1013.3 |
| 20260903163503 | 80 | 229 | 1.0 | 6.0 | 0.00 | 0.40 | 0.00 | 79 | 1013.5 |
| 20260903163047 | 80 | 269 | 1.0 | 6.0 | 0.00 | 0.40 | 0.00 | 80 | 1013.6 |
| 20260903162527 | 80 | 232 | 0.0 | 6.0 | 0.00 | 0.40 | 0.00 | 78 | 1013.6 |
| 20260903162007 | 80 | 231 | 2.0 | 6.0 | 0.00 | 0.40 | 0.00 | 79 | 1013.7 |
| 20260903161604 | 80 | 230 | 0.0 | 6.0 | 0.00 | 0.40 | 0.00 | 80 | 1013.7 |
| 20260903161031 | 79 | 237 | 0.0 | 5.0 | 0.00 | 0.40 | 0.00 | 81 | 1013.7 |
| 20260903160515 | 79 | 238 | 0.0 | 4.0 | 0.00 | 0.40 | 0.00 | 82 | 1013.7 |
| 20260903160055 | 79 | 238 | 0.0 | 4.0 | 0.00 | 0.40 | 0.00 | 81 | 1013.8 |
| 20260903155516 | 79 | 241 | 0.0 | 2.0 | 0.00 | 0.40 | 0.00 | 81 | 1014.0 |
| 20260903155101 | 79 | 241 | 0.0 | 4.0 | 0.00 | 0.40 | 0.00 | 82 | 1013.9 |
| 20260903154551 | 79 | 241 | 0.0 | 4.0 | 0.00 | 0.40 | 0.00 | 82 | 1014.0 |
| 20260903154022 | 78 | 241 | 1.0 | 5.0 | 0.00 | 0.40 | 0.00 | 83 | 1014.2 |
| 20260903153504 | 78 | 241 | 1.0 | 6.0 | 0.00 | 0.40 | 0.00 | 83 | 1014.2 |
| 20260903153045 | 78 | 239 | 1.0 | 6.0 | 0.00 | 0.40 | 0.00 | 83 | 1014.3 |
| 20260903152528 | 78 | 242 | 1.0 | 5.0 | 0.00 | 0.40 | 0.00 | 84 | 1014.2 |
| 20260903152009 | 78 | 244 | 0.0 | 4.0 | 0.00 | 0.40 | 0.00 | 85 | 1014.1 |
| 20260903151552 | 77 | 244 | 0.0 | 4.0 | 0.00 | 0.40 | 0.00 | 86 | 1014.1 |
| 20260903151032 | 77 | 244 | 1.0 | 5.0 | 0.00 | 0.40 | 0.00 | 85 | 1014.1 |
| 20260903150510 | 77 | 251 | 1.0 | 5.0 | 0.00 | 0.40 | 0.00 | 86 | 1014.1 |
| 20260903150053 | 77 | 230 | 0.0 | 4.0 | 0.00 | 0.40 | 0.00 | 86 | 1014.1 |
| 20260903145517 | 77 | 230 | 0.0 | 6.0 | 0.00 | 0.40 | 0.00 | 85 | 1014.2 |
| 20260903145058 | 77 | 230 | 1.0 | 8.0 | 0.00 | 0.40 | 0.00 | 85 | 1014.2 |
| 20260903144539 | 77 | 224 | 2.0 | 9.0 | 0.00 | 0.40 | 0.00 | 85 | 1014.2 |
| 20260903144019 | 77 | 234 | 3.0 | 9.0 | 0.00 | 0.40 | 0.00 | 85 | 1014.3 |
| 20260903143602 | 77 | 265 | 1.0 | 8.0 | 0.00 | 0.40 | 0.00 | 86 | 1014.2 |
| 20260903143046 | 77 | 239 | 2.0 | 8.0 | 0.00 | 0.40 | 0.00 | 86 | 1014.1 |
| 20260903142523 | 76 | 231 | 0.0 | 4.0 | 0.00 | 0.40 | 0.00 | 87 | 1014.1 |
| 20260903142002 | 76 | 231 | 0.0 | 6.0 | 0.00 | 0.40 | 0.00 | 87 | 1014.2 |
| 20260903141546 | 76 | 231 | 1.0 | 6.0 | 0.00 | 0.40 | 0.00 | 87 | 1014.2 |
| 20260903141027 | 76 | 233 | 0.0 | 6.0 | 0.00 | 0.40 | 0.00 | 88 | 1014.2 |
| 20260903140508 | 75 | 233 | 2.0 | 7.0 | 0.00 | 0.40 | 0.00 | 88 | 1014.1 |
| 20260903140059 | 75 | 250 | 0.0 | 5.0 | 0.00 | 0.40 | 0.00 | 89 | 1014.1 |
| 20260903135512 | 75 | 250 | 0.0 | 5.0 | 0.00 | 0.40 | 0.00 | 89 | 1014.1 |
| 20260903135056 | 75 | 242 | 0.0 | 4.0 | 0.00 | 0.40 | 0.00 | 89 | 1014.3 |
| 20260903134541 | 74 | 243 | 0.0 | 6.0 | 0.00 | 0.40 | 0.00 | 90 | 1014.3 |
| 20260903134017 | 74 | 225 | 0.0 | 5.0 | 0.00 | 0.40 | 0.00 | 91 | 1014.2 |
| 20260903133603 | 73 | 220 | 1.0 | 4.0 | 0.00 | 0.40 | 0.00 | 91 | 1014.2 |
| 20260903133041 | 73 | 220 | 0.0 | 6.0 | 0.00 | 0.40 | 0.00 | 92 | 1014.2 |
| 20260903132520 | 72 | 220 | 1.0 | 6.0 | 0.00 | 0.40 | 0.00 | 93 | 1014.3 |
| 20260903132000 | 72 | 219 | 0.0 | 0.0 | 0.00 | 0.40 | 0.00 | 94 | 1014.4 |
| 20260903131545 | 72 | 219 | 0.0 | 0.0 | 0.00 | 0.40 | 0.00 | 94 | 1014.4 |
| 20260903131025 | 72 | 219 | 0.0 | 0.0 | 0.00 | 0.41 | 0.00 | 95 | 1014.5 |
| 20260903130504 | 71 | 219 | 0.0 | 2.0 | 0.00 | 0.41 | 0.00 | 95 | 1014.6 |
| 20260903130055 | 71 | 219 | 0.0 | 2.0 | 0.00 | 0.41 | 0.00 | 95 | 1014.6 |
| 20260903125510 | 71 | 219 | 0.0 | 0.0 | 0.00 | 0.41 | 0.00 | 95 | 1014.6 |
| 20260903125055 | 71 | 219 | 0.0 | 0.0 | 0.00 | 0.41 | 0.00 | 95 | 1014.6 |
| 20260903124534 | 71 | 219 | 0.0 | 0.0 | 0.00 | 0.41 | 0.00 | 95 | 1014.6 |
| 20260903124014 | 71 | 219 | 0.0 | 0.0 | 0.00 | 0.41 | 0.00 | 95 | 1014.6 |
| 20260903123558 | 71 | 219 | 0.0 | 0.0 | 0.00 | 0.41 | 0.00 | 95 | 1014.7 |
| 20260903123039 | 71 | 219 | 0.0 | 0.0 | 0.00 | 0.41 | 0.00 | 95 | 1014.6 |
| 20260903122523 | 70 | 219 | 0.0 | 1.0 | 0.00 | 0.41 | 0.00 | 95 | 1014.7 |
| 20260903122103 | 70 | 219 | 0.0 | 1.0 | 0.00 | 0.41 | 0.00 | 95 | 1014.7 |
| 20260903121542 | 70 | 219 | 0.0 | 2.0 | 0.00 | 0.41 | 0.00 | 95 | 1014.7 |
| 20260903121025 | 70 | 219 | 0.0 | 0.0 | 0.00 | 0.59 | 0.00 | 95 | 1014.7 |
| 20260903120503 | 70 | 219 | 0.0 | 2.0 | 0.00 | 0.59 | 0.00 | 95 | 1014.6 |
| 20260903120051 | 70 | 219 | 0.0 | 2.0 | 0.00 | 0.59 | 0.00 | 95 | 1014.6 |
| 20260903115508 | 70 | 219 | 0.0 | 4.0 | 0.00 | 0.59 | 0.00 | 95 | 1014.7 |
| 20260903115052 | 69 | 219 | 0.0 | 4.0 | 0.00 | 0.59 | 0.00 | 95 | 1014.6 |
| 20260903114552 | 69 | 219 | 0.0 | 0.0 | 0.00 | 0.59 | 0.00 | 95 | 1014.6 |
| 20260903114012 | 69 | 219 | 0.0 | 0.0 | 0.00 | 0.59 | 0.00 | 95 | 1014.5 |
| 20260903113556 | 69 | 219 | 0.0 | 2.0 | 0.00 | 0.59 | 0.00 | 95 | 1014.5 |
| 20260903113036 | 69 | 219 | 0.0 | 2.0 | 0.00 | 0.59 | 0.00 | 95 | 1014.4 |
| 20260903112519 | 69 | 219 | 0.0 | 0.0 | 0.00 | 0.59 | 0.00 | 95 | 1014.3 |
| 20260903112100 | 68 | 219 | 0.0 | 0.0 | 0.00 | 0.59 | 0.00 | 95 | 1014.3 |
| 20260903111540 | 68 | 219 | 0.0 | 0.0 | 0.00 | 0.59 | 0.00 | 95 | 1014.2 |
| 20260903111020 | 68 | 219 | 0.0 | 0.0 | 0.00 | 0.59 | 0.00 | 95 | 1014.4 |
| 20260903110501 | 68 | 219 | 0.0 | 0.0 | 0.00 | 0.59 | 0.00 | 95 | 1014.3 |
| 20260903110049 | 68 | 219 | 0.0 | 0.0 | 0.00 | 0.59 | 0.00 | 95 | 1014.2 |
| 20260903105509 | 68 | 219 | 0.0 | 0.0 | 0.00 | 0.59 | 0.00 | 95 | 1014.1 |
| 20260903105051 | 68 | 219 | 0.0 | 0.0 | 0.00 | 0.59 | 0.00 | 95 | 1013.9 |
| 20260903104531 | 68 | 219 | 0.0 | 0.0 | 0.00 | 0.59 | 0.00 | 95 | 1013.8 |
| 20260903104011 | 69 | 219 | 0.0 | 0.0 | 0.00 | 0.59 | 0.00 | 95 | 1013.7 |
| 20260903103554 | 69 | 219 | 0.0 | 0.0 | 0.00 | 0.59 | 0.00 | 95 | 1013.6 |
| 20260903103036 | 69 | 219 | 0.0 | 0.0 | 0.00 | 0.59 | 0.00 | 95 | 1013.6 |
| 20260903102515 | 69 | 219 | 0.0 | 0.0 | 0.00 | 0.59 | 0.00 | 95 | 1013.6 |
| 20260903102059 | 69 | 219 | 0.0 | 0.0 | 0.00 | 0.59 | 0.00 | 95 | 1013.6 |
| 20260903101538 | 69 | 219 | 0.0 | 0.0 | 0.00 | 0.59 | 0.00 | 95 | 1013.6 |
| 20260903101019 | 69 | 219 | 0.0 | 0.0 | 0.00 | 0.59 | 0.00 | 95 | 1013.6 |
| 20260903100602 | 69 | 219 | 0.0 | 0.0 | 0.00 | 0.59 | 0.00 | 95 | 1013.5 |
| 20260903100043 | 69 | 219 | 0.0 | 0.0 | 0.00 | 0.59 | 0.00 | 95 | 1013.4 |
| 20260903095504 | 69 | 219 | 0.0 | 0.0 | 0.00 | 0.59 | 0.00 | 95 | 1013.3 |
| 20260903095048 | 69 | 219 | 0.0 | 0.0 | 0.00 | 0.59 | 0.00 | 95 | 1013.5 |
| 20260903094534 | 69 | 219 | 0.0 | 0.0 | 0.00 | 0.59 | 0.00 | 95 | 1013.4 |
| 20260903094008 | 69 | 219 | 0.0 | 0.0 | 0.00 | 0.59 | 0.00 | 95 | 1013.3 |
| 20260903093556 | 69 | 219 | 0.0 | 0.0 | 0.00 | 0.59 | 0.00 | 95 | 1013.4 |
| 20260903093048 | 69 | 219 | 0.0 | 0.0 | 0.00 | 0.59 | 0.00 | 95 | 1013.3 |
| 20260903092512 | 69 | 219 | 0.0 | 0.0 | 0.00 | 0.59 | 0.00 | 95 | 1013.2 |
| 20260903092057 | 69 | 219 | 0.0 | 0.0 | 0.00 | 0.59 | 0.00 | 95 | 1013.1 |
| 20260903091537 | 69 | 219 | 0.0 | 0.0 | 0.00 | 0.59 | 0.00 | 95 | 1013.1 |
| 20260903091016 | 69 | 219 | 0.0 | 0.0 | 0.00 | 0.59 | 0.00 | 95 | 1013.0 |
| 20260903090600 | 69 | 219 | 0.0 | 0.0 | 0.00 | 0.59 | 0.00 | 95 | 1012.8 |
| 20260903090040 | 69 | 219 | 0.0 | 0.0 | 0.00 | 0.59 | 0.00 | 95 | 1012.8 |
| 20260903085503 | 70 | 219 | 0.0 | 0.0 | 0.00 | 0.59 | 0.00 | 95 | 1012.8 |
| 20260903085046 | 70 | 219 | 0.0 | 0.0 | 0.00 | 0.59 | 0.00 | 95 | 1012.8 |
| 20260903084531 | 70 | 219 | 0.0 | 0.0 | 0.00 | 0.59 | 0.00 | 95 | 1012.8 |
| 20260903084007 | 70 | 219 | 0.0 | 0.0 | 0.00 | 0.59 | 0.00 | 95 | 1012.7 |
| 20260903083549 | 70 | 219 | 0.0 | 1.0 | 0.00 | 0.59 | 0.00 | 95 | 1012.7 |
| 20260903083029 | 70 | 219 | 0.0 | 1.0 | 0.00 | 0.59 | 0.00 | 95 | 1013.1 |
| 20260903082509 | 70 | 219 | 0.0 | 0.0 | 0.00 | 0.59 | 0.00 | 95 | 1012.9 |
| 20260903082053 | 70 | 219 | 0.0 | 0.0 | 0.00 | 0.59 | 0.00 | 95 | 1013.0 |
| 20260903081539 | 70 | 219 | 0.0 | 0.0 | 0.00 | 0.59 | 0.00 | 95 | 1012.9 |
| 20260903081013 | 70 | 219 | 0.0 | 0.0 | 0.00 | 0.59 | 0.00 | 95 | 1012.8 |
| 20260903080557 | 70 | 219 | 0.0 | 0.0 | 0.00 | 0.59 | 0.00 | 95 | 1012.8 |
| 20260903080018 | 70 | 219 | 0.0 | 0.0 | 0.00 | 0.59 | 0.00 | 95 | 1012.8 |
| 20260903075602 | 70 | 219 | 0.0 | 0.0 | 0.00 | 0.59 | 0.00 | 95 | 1012.7 |
| 20260903075042 | 70 | 219 | 0.0 | 0.0 | 0.00 | 0.59 | 0.00 | 95 | 1012.8 |
| 20260903074522 | 70 | 219 | 0.0 | 0.0 | 0.00 | 0.59 | 0.00 | 95 | 1012.7 |
| 20260903074002 | 70 | 219 | 0.0 | 0.0 | 0.00 | 0.59 | 0.00 | 95 | 1012.8 |
| 20260903073546 | 71 | 219 | 0.0 | 0.0 | 0.00 | 0.59 | 0.00 | 95 | 1012.9 |
| 20260903073026 | 71 | 219 | 0.0 | 0.0 | 0.00 | 0.59 | 0.00 | 95 | 1012.9 |
| 20260903072506 | 71 | 219 | 0.0 | 0.0 | 0.00 | 0.59 | 0.00 | 95 | 1012.8 |
| 20260903072050 | 71 | 219 | 0.0 | 0.0 | 0.00 | 0.59 | 0.00 | 94 | 1012.8 |
| 20260903071530 | 71 | 219 | 0.0 | 0.0 | 0.00 | 0.59 | 0.00 | 94 | 1012.7 |
| 20260903071013 | 71 | 219 | 0.0 | 0.0 | 0.00 | 0.59 | 0.00 | 94 | 1012.7 |
| 20260903070554 | 71 | 219 | 0.0 | 0.0 | 0.00 | 0.59 | 0.00 | 94 | 1012.8 |
| 20260903070035 | 71 | 219 | 0.0 | 0.0 | 0.00 | 0.59 | 0.00 | 94 | 1012.8 |
| 20260903065602 | 71 | 219 | 0.0 | 0.0 | 0.00 | 0.59 | 0.00 | 94 | 1012.8 |
| 20260903065040 | 71 | 219 | 0.0 | 0.0 | 0.00 | 0.59 | 0.00 | 94 | 1012.9 |
| 20260903064520 | 71 | 219 | 0.0 | 0.0 | 0.00 | 0.59 | 0.00 | 94 | 1013.1 |
| 20260903064105 | 71 | 219 | 0.0 | 2.0 | 0.00 | 0.59 | 0.00 | 94 | 1013.2 |
| 20260903063544 | 71 | 219 | 0.0 | 2.0 | 0.00 | 0.59 | 0.00 | 94 | 1012.9 |
| 20260903063024 | 70 | 219 | 0.0 | 0.0 | 0.00 | 0.59 | 0.00 | 94 | 1013.0 |
| 20260903062504 | 70 | 219 | 0.0 | 0.0 | 0.00 | 0.59 | 0.00 | 94 | 1012.7 |
| 20260903062048 | 70 | 219 | 0.0 | 0.0 | 0.00 | 0.59 | 0.00 | 94 | 1012.8 |
| 20260903061528 | 70 | 219 | 0.0 | 0.0 | 0.00 | 0.59 | 0.00 | 94 | 1012.8 |
| 20260903061011 | 70 | 219 | 0.0 | 0.0 | 0.00 | 0.59 | 0.00 | 94 | 1012.8 |
| 20260903060552 | 70 | 219 | 0.0 | 0.0 | 0.00 | 0.59 | 0.00 | 93 | 1012.8 |
| 20260903060014 | 70 | 219 | 0.0 | 0.0 | 0.00 | 0.59 | 0.00 | 93 | 1012.6 |
| 20260903055557 | 71 | 219 | 0.0 | 0.0 | 0.00 | 0.59 | 0.00 | 93 | 1012.6 |
| 20260903055037 | 71 | 219 | 0.0 | 0.0 | 0.00 | 0.59 | 0.00 | 93 | 1012.6 |
| 20260903054523 | 71 | 219 | 0.0 | 0.0 | 0.00 | 0.59 | 0.00 | 93 | 1012.8 |
| 20260903054101 | 71 | 219 | 0.0 | 5.0 | 0.00 | 0.59 | 0.00 | 93 | 1012.8 |
| 20260903053541 | 71 | 219 | 0.0 | 5.0 | 0.00 | 0.59 | 0.00 | 93 | 1012.8 |
| 20260903053021 | 71 | 219 | 0.0 | 6.0 | 0.00 | 0.59 | 0.00 | 93 | 1012.8 |
| 20260903052501 | 71 | 218 | 1.0 | 6.0 | 0.00 | 0.59 | 0.00 | 93 | 1012.9 |
| 20260903052045 | 71 | 244 | 0.0 | 0.0 | 0.00 | 0.59 | 0.00 | 93 | 1012.8 |
| 20260903051524 | 71 | 244 | 0.0 | 0.0 | 0.00 | 0.59 | 0.00 | 93 | 1012.6 |
| 20260903051005 | 71 | 244 | 0.0 | 2.0 | 0.00 | 0.59 | 0.00 | 93 | 1012.7 |
| 20260903050550 | 71 | 244 | 0.0 | 4.0 | 0.00 | 0.59 | 0.00 | 94 | 1012.8 |
| 20260903050029 | 72 | 244 | 0.0 | 4.0 | 0.00 | 0.59 | 0.00 | 94 | 1012.8 |
| 20260903045555 | 72 | 238 | 0.0 | 4.0 | 0.00 | 0.59 | 0.00 | 94 | 1012.8 |
| 20260903045035 | 71 | 238 | 1.0 | 5.0 | 0.00 | 0.59 | 0.00 | 94 | 1012.8 |
| 20260903044515 | 71 | 239 | 1.0 | 8.0 | 0.00 | 0.59 | 0.00 | 94 | 1012.5 |
| 20260903044059 | 71 | 244 | 0.0 | 8.0 | 0.00 | 0.59 | 0.00 | 94 | 1012.5 |
| 20260903043540 | 71 | 211 | 0.0 | 6.0 | 0.00 | 0.59 | 0.00 | 94 | 1012.6 |
| 20260903043019 | 71 | 231 | 1.0 | 6.0 | 0.00 | 0.59 | 0.00 | 94 | 1012.6 |
| 20260903042603 | 71 | 239 | 0.0 | 5.0 | 0.00 | 0.59 | 0.00 | 94 | 1012.4 |
| 20260903042044 | 71 | 239 | 1.0 | 5.0 | 0.00 | 0.59 | 0.00 | 94 | 1012.4 |
| 20260903041524 | 71 | 239 | 0.0 | 6.0 | 0.00 | 0.59 | 0.00 | 94 | 1012.1 |
| 20260903041005 | 70 | 237 | 2.0 | 6.0 | 0.00 | 0.59 | 0.59 | 95 | 1012.0 |
| 20260903040545 | 70 | 264 | 1.0 | 4.0 | 0.00 | 0.59 | 0.59 | 95 | 1012.1 |
| 20260903040025 | 70 | 264 | 0.0 | 4.0 | 0.00 | 0.59 | 0.59 | 95 | 1012.0 |
| 20260903035550 | 70 | 265 | 0.0 | 0.0 | 0.00 | 0.59 | 0.59 | 95 | 1012.0 |
| 20260903035031 | 70 | 265 | 0.0 | 5.0 | 0.00 | 0.59 | 0.59 | 95 | 1012.0 |